EW5024 Weather Reports


time (UTC)temp
C
wind
direction
speed
KPH
gust
KPH
rain 1hr
cm
rain 24hr
cm
rain mn
cm
humidity
%
barometer
mb
20260507081553 15 65 1.6 6.4 0.00 0.46 0.05 74 1014.2
20260507080042 14 53 1.6 4.8 0.00 0.46 0.05 75 1014.2
20260507074539 13 311 1.6 4.8 0.00 0.48 0.05 76 1014.2
20260507073037 13 311 1.6 4.8 0.00 0.48 0.05 77 1014.2
20260507071537 13 303 1.6 3.2 0.00 0.48 0.05 79 1014.2
20260507070036 13 303 3.2 6.4 0.00 0.48 0.05 81 1014.2
20260507064557 12 304 1.6 4.8 0.00 0.48 0.05 82 1014.2
20260507063035 12 327 1.6 4.8 0.00 0.48 0.05 82 1014.2
20260507061532 12 318 0.0 3.2 0.00 0.48 0.05 82 1014.1
20260507060029 12 317 0.0 0.0 0.00 0.48 0.05 82 1014.0
20260507054527 12 308 0.0 0.0 0.00 0.48 0.05 82 1013.9
20260507053026 11 306 0.0 1.6 0.00 0.48 0.05 82 1013.9
20260507051526 11 321 0.0 0.0 0.00 0.48 0.05 82 1013.9
20260507050036 11 321 0.0 0.0 0.00 0.48 0.05 82 1013.7
20260507044523 11 319 0.0 0.0 0.00 0.48 0.05 82 1013.5
20260507043022 11 319 0.0 1.6 0.00 0.48 0.05 82 1013.4
20260507041525 11 269 1.6 4.8 0.00 0.48 0.05 82 1013.3
20260507040018 11 239 0.0 0.0 0.00 0.48 0.05 82 1013.1
20260507034518 11 239 0.0 0.0 0.00 0.48 0.05 82 1013.1
20260507033020 11 239 0.0 3.2 0.00 0.48 0.05 82 1013.0
20260507031515 11 238 0.0 0.0 0.00 0.48 0.05 82 1012.9
20260507030025 11 238 0.0 0.0 0.00 0.48 0.05 82 1012.9
20260507024522 11 238 0.0 0.0 0.03 0.48 0.05 82 1012.9
20260507023014 11 238 0.0 0.0 0.03 0.48 0.05 82 1013.0
20260507021513 11 238 0.0 0.0 0.03 0.48 0.05 82 1013.0
20260507020012 11 238 0.0 0.0 0.03 0.48 0.05 82 1013.0
20260507014513 11 238 0.0 0.0 0.00 0.48 0.03 82 1012.9
20260507013013 11 238 0.0 6.4 0.00 0.48 0.03 82 1012.7
20260507011509 11 225 0.0 0.0 0.00 0.48 0.03 82 1012.8
20260507010008 11 225 0.0 0.0 0.00 0.48 0.03 82 1012.7
20260507004506 12 223 0.0 4.8 0.03 0.48 0.03 82 1012.7
20260507003004 12 219 0.0 0.0 0.03 0.48 0.03 82 1012.7
20260507001503 12 219 0.0 0.0 0.03 0.48 0.03 82 1012.7
20260507000002 12 219 0.0 1.6 0.03 0.48 0.03 82 1012.7
20260506234501 12 219 0.0 1.6 0.00 0.46 0.00 82 1012.6
20260506233000 12 216 1.6 4.8 0.00 0.46 0.00 82 1012.6
20260506231611 12 211 0.0 4.8 0.00 0.46 0.00 82 1012.5
20260506230116 12 204 0.0 3.2 0.00 0.46 0.00 82 1012.6
20260506224557 12 202 0.0 4.8 0.00 0.46 0.00 81 1012.5
20260506223054 13 198 1.6 4.8 0.00 0.46 0.00 80 1012.5
20260506221610 13 186 3.2 4.8 0.05 0.46 0.00 80 1012.5
20260506220105 13 207 0.0 0.0 0.05 0.46 0.00 81 1012.3
20260506214550 13 207 3.2 6.4 0.05 0.46 0.46 80 1012.2
20260506213104 13 93 4.8 12.9 0.03 0.43 0.43 82 1012.0
20260506211548 13 65 1.6 6.4 0.00 0.43 0.43 82 1012.2
20260506210054 13 276 3.2 6.4 0.00 0.43 0.43 82 1012.1
20260506204547 13 92 3.2 6.4 0.00 0.43 0.43 82 1012.0
20260506203046 13 227 1.6 4.8 0.00 0.43 0.43 82 1012.0
20260506201548 13 118 3.2 8.0 0.00 0.43 0.43 82 1011.8
20260506200045 13 229 1.6 4.8 0.03 0.43 0.43 82 1011.5
20260506194545 13 227 4.8 8.0 0.03 0.43 0.43 81 1011.3
20260506193045 13 234 1.6 6.4 0.03 0.43 0.43 81 1010.9
20260506191548 14 160 3.2 8.0 0.03 0.43 0.43 80 1010.7
20260506190043 14 216 1.6 3.2 0.00 0.43 0.41 80 1010.5
20260506184553 14 216 0.0 0.0 0.00 0.43 0.41 79 1010.4
20260506183042 14 215 0.0 3.2 0.00 0.43 0.41 80 1010.2
20260506181543 15 222 0.0 3.2 0.00 0.43 0.41 79 1010.0
20260506180041 15 222 1.6 4.8 0.00 0.43 0.41 78 1010.0
20260506174540 15 222 0.0 1.6 0.00 0.43 0.41 78 1010.0
20260506173046 16 222 1.6 6.4 0.00 0.43 0.41 76 1009.7
20260506171553 16 226 3.2 4.8 0.00 0.43 0.41 75 1009.4
20260506170043 16 227 0.0 4.8 0.00 0.43 0.41 74 1009.3
20260506164538 16 227 0.0 3.2 0.00 0.43 0.41 75 1009.3
20260506163037 16 227 3.2 6.4 0.00 0.43 0.41 73 1009.3
20260506161539 16 219 3.2 6.4 0.00 0.43 0.41 73 1009.3
20260506160039 16 205 1.6 4.8 0.00 0.43 0.41 74 1009.3
20260506154533 16 222 0.0 6.4 0.00 0.43 0.41 74 1009.5
20260506153030 15 218 0.0 6.4 0.00 0.43 0.41 77 1009.5
20260506151533 15 225 4.8 8.0 0.00 0.43 0.41 78 1009.8
20260506150028 15 254 3.2 8.0 0.00 0.43 0.41 77 1009.8
20260506144525 15 244 6.4 12.9 0.00 0.43 0.41 77 1009.9
20260506143024 15 315 0.0 11.3 0.00 0.43 0.41 79 1010.0
20260506141522 15 342 1.6 4.8 0.00 0.43 0.41 80 1010.3
20260506140028 15 282 1.6 6.4 0.03 0.43 0.41 79 1010.5
20260506134521 14 148 9.7 19.3 0.05 0.43 0.41 79 1010.9
20260506133027 13 131 11.3 24.1 0.13 0.43 0.41 80 1010.9
20260506131520 13 133 14.5 30.6 0.23 0.43 0.41 81 1010.8
20260506130019 13 139 14.5 24.1 0.28 0.41 0.38 80 1010.7
20260506124521 14 207 11.3 30.6 0.23 0.38 0.33 79 1010.9
20260506123015 14 116 9.7 14.5 0.18 0.33 0.28 82 1010.5
20260506121515 15 227 4.8 6.4 0.05 0.20 0.15 80 1010.4
20260506120012 15 317 3.2 6.4 0.03 0.15 0.10 79 1010.0
20260506114529 15 360 3.2 8.0 0.03 0.15 0.10 80 1010.0
20260506113011 15 334 4.8 8.0 0.03 0.15 0.10 81 1010.0
20260506111507 15 332 3.2 6.4 0.05 0.15 0.10 80 1010.4
20260506110004 15 283 3.2 6.4 0.05 0.13 0.08 78 1010.8
20260506104502 15 109 1.6 4.8 0.05 0.15 0.08 79 1010.9
20260506103002 15 150 3.2 4.8 0.05 0.15 0.08 78 1011.0
20260506101500 15 271 1.6 4.8 0.00 0.13 0.05 78 1011.1
20260506100114 15 271 1.6 4.8 0.00 0.13 0.05 79 1011.0
20260506094600 15 279 1.6 4.8 0.00 0.15 0.05 81 1010.8
20260506093059 14 286 3.2 6.4 0.00 0.15 0.05 80 1011.0
20260506091557 14 294 0.0 4.8 0.00 0.15 0.05 80 1011.1
20260506090055 14 290 0.0 4.8 0.00 0.15 0.05 81 1011.2
20260506084558 15 210 1.6 4.8 0.00 0.15 0.05 81 1011.2
20260506083052 14 246 0.0 3.2 0.00 0.15 0.05 81 1011.3